Cape Flattery Observation History
Time Wind Speed Temp Pressure Rel. Hum Rain
14/10:30am SSE 18-23 kts 28.3°c 1012.4 hPa 69% 0.0mm
14/10:00am SSE 16-21 kts 28.0°c 1012.5 hPa 72% 0.0mm
14/09:30am SSE 17-22 kts 27.9°c 1012.5 hPa 73% 0.0mm
14/09:00am SSE 16-21 kts 27.8°c 1012.4 hPa 73% 0.0mm
14/08:30am SSE 14-20 kts 27.5°c 1012.0 hPa 80% 0.0mm
14/08:00am SSE 14-20 kts 26.5°c 1011.6 hPa 79% 0.0mm
14/07:30am SSE 13-18 kts 26.0°c 1011.3 hPa 82% 0.0mm
14/07:00am SSE 12-16 kts 25.5°c 1010.9 hPa 85% 0.0mm
14/06:30am SSE 12-16 kts 25.3°c 1010.5 hPa 85% 0.0mm
14/06:00am SSE 11-15 kts 25.1°c 1010.2 hPa 85% 0.0mm
14/05:30am SSE 12-16 kts 25.3°c 1009.9 hPa 85% 0.0mm
14/05:00am SSE 11-13 kts 25.3°c 1009.8 hPa 87% 0.0mm
14/04:30am SSE 10-15 kts 25.1°c 1009.9 hPa 87% 0.0mm
14/04:00am SSE 11-15 kts 25.2°c 1009.9 hPa 86% 0.0mm
14/03:30am SSE 11-14 kts 25.2°c 1010.0 hPa 86% 0.0mm
14/03:00am SSE 10-12 kts 25.3°c 1010.0 hPa 88% 0.0mm
14/02:30am SSE 10-13 kts 25.4°c 1010.1 hPa 88% 0.0mm
14/02:00am SSE 11-13 kts 25.4°c 1010.3 hPa 87% 0.0mm
14/01:30am SSE 12-17 kts 25.5°c 1010.6 hPa 86% 0.0mm
14/01:00am SSE 12-15 kts 25.6°c 1010.7 hPa 85% 0.0mm
14/12:30am SSE 11-15 kts 25.6°c 1010.9 hPa 86% 0.0mm
14/12:00am SSE 13-18 kts 26.0°c 1011.0 hPa 85% 0.0mm
Time Wind Speed Temp Pressure Rel. Hum Rain
13/11:30pm SSE 13-17 kts 25.9°c 1011.3 hPa 85% 0.0mm
13/11:00pm SSE 13-18 kts 26.1°c 1011.2 hPa 86% 0.0mm
13/10:30pm SSE 13-17 kts 25.8°c 1011.3 hPa 86% 0.0mm
13/10:00pm SSE 12-17 kts 26.0°c 1011.3 hPa 87% 0.0mm
13/09:30pm SSE 12-16 kts 25.9°c 1011.3 hPa 87% 0.0mm
13/09:00pm SSE 13-18 kts 25.8°c 1011.1 hPa 87% 0.0mm
13/08:30pm SSE 13-19 kts 25.8°c 1011.0 hPa 86% 0.0mm
13/08:00pm SSE 14-19 kts 25.8°c 1010.8 hPa 86% 0.0mm
13/07:30pm SSE 13-17 kts 25.7°c 1010.6 hPa 86% 0.0mm
13/07:00pm SSE 13-17 kts 25.9°c 1010.4 hPa 85% 0.0mm
13/06:30pm SSE 13-17 kts 25.9°c 1010.4 hPa 84% 0.0mm
13/06:00pm SSE 12-16 kts 26.0°c 1010.4 hPa 84% 0.0mm
13/05:30pm SSE 14-18 kts 26.3°c 1010.1 hPa 82% 0.0mm
13/05:00pm SSE 13-17 kts 26.7°c 1010.0 hPa 81% 0.0mm
13/04:30pm SSE 13-16 kts 26.7°c 1009.8 hPa 79% 0.0mm
13/04:00pm SSE 15-19 kts 27.3°c 1009.5 hPa 77% 0.0mm
13/03:30pm SSE 15-19 kts 27.3°c 1009.4 hPa 77% 0.0mm
13/03:00pm SSE 14-18 kts 28.0°c 1009.5 hPa 74% 0.0mm
13/02:30pm SSE 15-19 kts 27.9°c 1009.8 hPa 73% 0.0mm
13/02:00pm S 15-20 kts 28.7°c 1010.0 hPa 74% 0.0mm
13/01:30pm SSE 16-21 kts 28.0°c 1010.2 hPa 73% 0.0mm
13/01:00pm S 15-19 kts 28.7°c 1010.6 hPa 74% 0.0mm
13/12:30pm S 15-19 kts 28.3°c 1010.9 hPa 73% 0.0mm
13/12:00pm S 15-20 kts 28.1°c 1011.4 hPa 73% 0.0mm
13/11:30am SSE 15-19 kts 28.3°c 1011.8 hPa 72% 0.0mm
13/11:00am SSE 13-19 kts 28.7°c 1012.0 hPa 74% 0.0mm
13/10:30am SSE 13-17 kts 27.9°c 1012.3 hPa 75% 0.0mm
13/10:00am SSE 14-17 kts 27.8°c 1012.5 hPa 76% 0.0mm
13/09:30am SSE 12-16 kts 27.5°c 1012.4 hPa 77% 0.0mm
13/09:00am SSE 12-17 kts 27.0°c 1012.2 hPa 81% 0.2mm
13/08:30am SSE 12-15 kts 25.7°c 1012.0 hPa 84% 0.2mm
13/08:00am SSE 12-16 kts 26.3°c 1011.7 hPa 84% 0.2mm
13/07:30am SSE 10-13 kts 25.3°c 1011.4 hPa 90% 0.2mm
13/07:00am SSE 9-11 kts 25.1°c 1011.1 hPa 90% 0.2mm
13/06:30am SSE 10-13 kts 25.0°c 1010.8 hPa 89% 0.2mm
13/06:00am SSE 11-14 kts 25.4°c 1010.5 hPa 89% 0.2mm
13/05:30am SSE 12-16 kts 25.4°c 1010.4 hPa 89% 0.2mm
13/05:00am SSE 11-15 kts 25.6°c 1010.5 hPa 89% 0.2mm
13/04:30am SSE 12-16 kts 25.5°c 1010.4 hPa 88% 0.2mm
13/04:00am SSE 14-17 kts 25.7°c 1010.2 hPa 88% 0.2mm
13/03:30am SSE 12-15 kts 25.7°c 1010.4 hPa 90% 0.2mm
13/03:00am SSE 12-16 kts 25.7°c 1010.4 hPa 86% 0.2mm
13/02:30am SSE 11-14 kts 25.7°c 1010.6 hPa 90% 0.2mm
13/02:00am SSE 11-13 kts 25.6°c 1011.0 hPa 90% 0.2mm
13/01:30am SSE 10-14 kts 25.8°c 1011.4 hPa 91% 0.2mm
13/01:00am SSE 11-15 kts 25.8°c 1011.8 hPa 90% 0.2mm
13/12:30am SSE 10-13 kts 25.6°c 1012.2 hPa 91% 0.2mm
13/12:00am SSE 11-14 kts 25.4°c 1012.3 hPa 91% 0.2mm
Time Wind Speed Temp Pressure Rel. Hum Rain
12/11:30pm SSE 9-12 kts 25.5°c 1012.4 hPa 90% 0.2mm
12/11:00pm SSE 10-13 kts 25.9°c 1012.5 hPa 90% 0.2mm
12/10:30pm SE 11-14 kts 26.0°c 1012.4 hPa 89% 0.2mm
12/10:00pm SSE 10-13 kts 25.9°c 1012.4 hPa 90% 0.2mm
12/09:30pm SSE 12-15 kts 26.2°c 1012.4 hPa 88% 0.2mm
12/09:00pm SSE 11-13 kts 26.3°c 1012.4 hPa 89% 0.2mm
12/08:30pm SSE 10-14 kts 26.2°c 1012.2 hPa 89% 0.2mm
12/08:00pm SSE 12-16 kts 26.1°c 1011.8 hPa 88% 0.2mm
12/07:30pm SSE 11-14 kts 26.0°c 1011.6 hPa 88% 0.2mm
12/07:00pm SSE 11-15 kts 26.0°c 1011.4 hPa 88% 0.2mm
12/06:30pm SSE 12-16 kts 25.9°c 1011.1 hPa 88% 0.2mm
12/06:00pm SSE 12-16 kts 26.1°c 1011.1 hPa 88% 0.2mm
12/05:30pm SSE 14-18 kts 26.6°c 1011.0 hPa 85% 0.2mm
12/05:00pm SSE 14-18 kts 26.7°c 1010.9 hPa 85% 0.2mm
12/04:30pm SSE 14-17 kts 26.7°c 1010.7 hPa 84% 0.2mm
12/04:00pm SSE 15-21 kts 27.2°c 1010.5 hPa 83% 0.2mm
12/03:30pm SSE 15-19 kts 27.8°c 1010.5 hPa 80% 0.2mm
12/03:00pm SSE 15-20 kts 27.7°c 1010.6 hPa 78% 0.2mm
12/02:30pm SSE 16-19 kts 27.7°c 1010.9 hPa 79% 0.2mm
12/02:00pm SSE 16-20 kts 28.1°c 1011.2 hPa 79% 0.2mm
12/01:30pm SSE 15-21 kts 28.0°c 1011.5 hPa 76% 0.2mm
12/01:00pm SSE 16-20 kts 28.1°c 1011.8 hPa 79% 0.2mm
12/12:30pm SSE 16-21 kts 28.2°c 1012.1 hPa 77% 0.2mm
12/12:00pm SSE 17-22 kts 28.0°c 1012.5 hPa 81% 0.2mm
12/11:30am SSE 16-21 kts 28.0°c 1012.8 hPa 81% 0.2mm
12/11:00am SSE 16-22 kts 27.5°c 1013.2 hPa 81% 0.2mm
12/10:30am SSE 17-21 kts 27.5°c 1013.5 hPa 82% 0.2mm
12/10:00am SSE 14-19 kts 27.9°c 1013.6 hPa 82% 0.0mm
12/09:30am SSE 14-21 kts 27.3°c 1013.4 hPa 86% 0.0mm
12/09:00am SSE 13-19 kts 26.8°c 1013.3 hPa 89% 5.8mm
12/08:30am S 12-16 kts 26.4°c 1013.2 hPa 92% 5.8mm
12/08:00am SSE 10-14 kts 25.9°c 1012.9 hPa 93% 5.8mm
12/07:30am SSE 9-12 kts 25.0°c 1012.6 hPa 93% 5.8mm
12/07:00am SSE 13-17 kts 24.5°c 1012.2 hPa 93% 5.8mm
12/06:30am SSE 11-14 kts 24.7°c 1011.8 hPa 94% 5.8mm
12/06:00am SSE 10-14 kts 25.1°c 1011.7 hPa 95% 5.8mm
12/05:30am SSE 10-13 kts 24.7°c 1011.3 hPa 94% 5.8mm
12/05:00am SSE 10-13 kts 25.2°c 1011.2 hPa 95% 5.8mm
12/04:30am SSE 11-14 kts 25.3°c 1011.2 hPa 94% 5.8mm
12/04:00am SSE 13-16 kts 25.3°c 1011.2 hPa 94% 5.8mm
12/03:30am SSE 12-16 kts 25.3°c 1011.2 hPa 94% 5.8mm
12/03:00am SSE 12-16 kts 25.2°c 1011.3 hPa 95% 5.8mm
12/02:30am SSE 10-13 kts 25.3°c 1011.4 hPa 95% 4.2mm
12/02:00am SSE 10-14 kts 25.3°c 1011.7 hPa 95% 4.2mm
12/01:30am SE 11-22 kts 25.1°c 1012.0 hPa 94% 4.2mm
12/01:00am SSE 11-15 kts 25.6°c 1012.3 hPa 91% 0.2mm
12/12:30am SSE 11-16 kts 26.1°c 1012.3 hPa 90% 0.0mm
12/12:00am SSE 11-15 kts 26.2°c 1012.4 hPa 90% 0.0mm